^^
Datos históricos de la estación: Murcia-Puente Tocinos
Diario Informe para Julio 16, 2019 Unidades:  Métrico    Inglés   Ambas
Diario Semanal Mensual Anual Configurable
  Máximo: Mínimo: Media:
Temperatura: 30.8 °C 24.4 °C 27.3 °C
Punto de rocio: 23.3 °C 17.4 °C 20.6 °C
Humedad: 91% 48% 69%
Velocidad viento: 22.0km/h 3.2km/h 11.3km/h
Racha viento: 37.0km/h - -
Viento- - ENE
Presión: 1013.9 hPa 1011.0 hPa -
Precipitación: 0.0 mm    
Historical Graphs
 
 
Tabla de datos para Julio 16, 2019
Hora Temperatura Punto de rocio Presión Viento Velocidad viento Racha viento Humedad Intensidad lluvia(por hora) Nubes
00:04 25.7 °C 22.4 °C 1011.0 hPa NE 13.0 km/h 16.7 km/h 82% 0.0 mm CLR
00:09 25.7 °C 22.4 °C 1011.0 hPa ENE 11.1 km/h 16.7 km/h 82% 0.0 mm CLR
00:14 25.7 °C 22.4 °C 1011.0 hPa NNE 11.1 km/h 18.5 km/h 82% 0.0 mm CLR
00:19 25.6 °C 22.5 °C 1011.1 hPa NE 12.2 km/h 22.2 km/h 83% 0.0 mm CLR
00:24 25.6 °C 22.5 °C 1011.1 hPa NNE 12.2 km/h 22.2 km/h 83% 0.0 mm CLR
00:29 25.6 °C 22.5 °C 1011.1 hPa NE 12.2 km/h 18.5 km/h 83% 0.0 mm CLR
00:34 25.7 °C 22.6 °C 1011.1 hPa NE 12.2 km/h 14.8 km/h 83% 0.0 mm CLR
00:39 25.6 °C 22.7 °C 1011.1 hPa ENE 11.9 km/h 18.5 km/h 84% 0.0 mm CLR
00:44 25.6 °C 22.7 °C 1011.1 hPa NE 11.9 km/h 14.8 km/h 84% 0.0 mm CLR
00:49 25.6 °C 22.9 °C 1011.3 hPa NE 12.2 km/h 14.8 km/h 85% 0.0 mm CLR
00:54 25.6 °C 22.9 °C 1011.3 hPa NNE 12.2 km/h 16.7 km/h 85% 0.0 mm CLR
00:59 25.6 °C 22.9 °C 1011.3 hPa North 9.5 km/h 11.1 km/h 85% 0.0 mm CLR
01:04 25.5 °C 22.8 °C 1011.4 hPa NNE 9.5 km/h 13.0 km/h 85% 0.0 mm CLR
01:09 25.5 °C 23.0 °C 1011.4 hPa NE 9.5 km/h 13.0 km/h 86% 0.0 mm CLR
01:14 25.4 °C 22.9 °C 1011.4 hPa NE 9.5 km/h 9.5 km/h 86% 0.0 mm CLR
01:19 25.4 °C 22.9 °C 1011.5 hPa NNE 8.7 km/h 18.5 km/h 86% 0.0 mm CLR
01:24 25.3 °C 22.8 °C 1011.5 hPa North 8.7 km/h 14.8 km/h 86% 0.0 mm CLR
01:29 25.3 °C 23.0 °C 1011.5 hPa NE 8.7 km/h 15.6 km/h 87% 0.0 mm CLR
01:34 25.3 °C 23.0 °C 1011.4 hPa NE 8.7 km/h 11.1 km/h 87% 0.0 mm CLR
01:39 25.3 °C 23.0 °C 1011.4 hPa NE 9.5 km/h 11.1 km/h 87% 0.0 mm CLR
01:44 25.3 °C 23.0 °C 1011.4 hPa NE 9.5 km/h 7.4 km/h 87% 0.0 mm CLR
01:49 25.3 °C 23.0 °C 1011.5 hPa NE 6.9 km/h 14.8 km/h 87% 0.0 mm CLR
01:54 25.2 °C 22.9 °C 1011.5 hPa ENE 6.9 km/h 10.0 km/h 87% 0.0 mm CLR
01:59 25.2 °C 22.9 °C 1011.5 hPa NE 7.6 km/h 10.0 km/h 87% 0.0 mm CLR
02:04 25.2 °C 22.9 °C 1011.6 hPa North 7.6 km/h 13.0 km/h 87% 0.0 mm CLR
02:09 25.2 °C 22.9 °C 1011.6 hPa NE 7.6 km/h 13.0 km/h 87% 0.0 mm CLR
02:14 25.2 °C 22.9 °C 1011.6 hPa NE 7.6 km/h 9.5 km/h 87% 0.0 mm CLR
02:19 25.2 °C 22.9 °C 1011.6 hPa NNE 6.4 km/h 11.1 km/h 87% 0.0 mm CLR
02:24 25.2 °C 22.9 °C 1011.6 hPa NNE 6.4 km/h 8.7 km/h 87% 0.0 mm CLR
02:29 25.2 °C 22.9 °C 1011.6 hPa North 6.4 km/h 13.0 km/h 87% 0.0 mm CLR
02:34 25.1 °C 22.8 °C 1011.6 hPa NNE 6.4 km/h 13.0 km/h 87% 0.0 mm CLR
02:39 25.1 °C 22.8 °C 1011.6 hPa NE 7.6 km/h 8.7 km/h 87% 0.0 mm CLR
02:44 25.1 °C 22.8 °C 1011.6 hPa NE 7.6 km/h 13.0 km/h 87% 0.0 mm CLR
02:49 25.1 °C 22.9 °C 1011.8 hPa NNE 7.6 km/h 7.4 km/h 88% 0.0 mm CLR
02:54 25.1 °C 22.9 °C 1011.8 hPa NNE 7.6 km/h 9.5 km/h 88% 0.0 mm CLR
02:59 25.1 °C 22.9 °C 1011.8 hPa NE 7.6 km/h 13.0 km/h 88% 0.0 mm CLR
03:04 25.1 °C 22.9 °C 1011.8 hPa NNE 7.6 km/h 11.1 km/h 88% 0.0 mm CLR
03:09 25.1 °C 22.9 °C 1011.8 hPa NE 8.7 km/h 13.0 km/h 88% 0.0 mm CLR
03:14 25.1 °C 22.9 °C 1011.8 hPa NE 8.7 km/h 11.1 km/h 88% 0.0 mm CLR
03:19 25.2 °C 23.1 °C 1011.7 hPa NE 8.4 km/h 11.1 km/h 88% 0.0 mm CLR
03:24 25.2 °C 23.1 °C 1011.7 hPa NNE 8.4 km/h 9.3 km/h 88% 0.0 mm CLR
03:29 25.2 °C 23.1 °C 1011.7 hPa NE 6.9 km/h 11.1 km/h 88% 0.0 mm CLR
03:34 25.1 °C 22.9 °C 1011.9 hPa NNE 6.9 km/h 10.0 km/h 88% 0.0 mm CLR
03:39 25.1 °C 22.9 °C 1011.9 hPa NE 9.5 km/h 14.8 km/h 88% 0.0 mm CLR
03:44 25.1 °C 23.2 °C 1011.9 hPa NNE 9.5 km/h 9.3 km/h 89% 0.0 mm CLR
03:49 25.1 °C 23.2 °C 1011.8 hPa NE 8.4 km/h 11.1 km/h 89% 0.0 mm CLR
03:54 25.1 °C 23.2 °C 1011.8 hPa NNE 8.4 km/h 13.0 km/h 89% 0.0 mm CLR
03:59 25.1 °C 23.2 °C 1011.8 hPa NE 6.9 km/h 9.3 km/h 89% 0.0 mm CLR
04:04 25.0 °C 23.1 °C 1011.9 hPa NNE 6.9 km/h 11.9 km/h 89% 0.0 mm CLR
04:09 25.0 °C 23.1 °C 1011.9 hPa NE 7.6 km/h 9.3 km/h 89% 0.0 mm CLR
04:14 25.1 °C 23.2 °C 1011.9 hPa NE 7.6 km/h 8.4 km/h 89% 0.0 mm CLR
04:19 25.1 °C 23.2 °C 1011.7 hPa NNE 5.8 km/h 9.3 km/h 89% 0.0 mm CLR
04:24 25.0 °C 23.1 °C 1011.7 hPa NE 5.8 km/h 11.1 km/h 89% 0.0 mm CLR
04:29 25.1 °C 23.2 °C 1011.7 hPa ENE 7.6 km/h 7.4 km/h 89% 0.0 mm CLR
04:34 25.1 °C 23.2 °C 1011.7 hPa NE 7.6 km/h 11.1 km/h 89% 0.0 mm CLR
04:39 25.1 °C 23.2 °C 1011.7 hPa NNE 6.4 km/h 9.3 km/h 89% 0.0 mm CLR
04:44 25.1 °C 23.2 °C 1011.7 hPa ENE 6.4 km/h 10.0 km/h 89% 0.0 mm CLR
04:49 25.1 °C 23.2 °C 1011.9 hPa NE 6.9 km/h 9.3 km/h 89% 0.0 mm CLR
04:54 25.1 °C 23.2 °C 1011.9 hPa NE 6.9 km/h 11.1 km/h 89% 0.0 mm CLR
04:59 25.1 °C 23.2 °C 1011.9 hPa NE 6.4 km/h 11.1 km/h 89% 0.0 mm CLR
05:04 25.1 °C 23.2 °C 1011.9 hPa NE 6.4 km/h 6.9 km/h 89% 0.0 mm CLR
05:09 25.1 °C 23.2 °C 1011.9 hPa ENE 5.0 km/h 11.1 km/h 89% 0.0 mm CLR
05:14 25.0 °C 23.1 °C 1011.9 hPa NE 5.0 km/h 8.4 km/h 89% 0.0 mm CLR
05:19 25.0 °C 23.1 °C 1011.9 hPa NNE 6.4 km/h 9.5 km/h 89% 0.0 mm CLR
05:24 24.9 °C 22.9 °C 1011.9 hPa NE 6.4 km/h 7.6 km/h 89% 0.0 mm CLR
05:29 24.9 °C 22.9 °C 1011.9 hPa ENE 5.8 km/h 9.3 km/h 89% 0.0 mm CLR
05:34 24.9 °C 23.2 °C 1011.9 hPa NNE 5.8 km/h 11.1 km/h 90% 0.0 mm CLR
05:39 24.9 °C 23.2 °C 1011.9 hPa NE 6.4 km/h 11.1 km/h 90% 0.0 mm CLR
05:44 24.9 °C 23.2 °C 1011.9 hPa ENE 6.4 km/h 9.3 km/h 90% 0.0 mm CLR
05:49 24.9 °C 23.2 °C 1011.9 hPa ENE 6.4 km/h 8.7 km/h 90% 0.0 mm CLR
05:54 24.8 °C 23.1 °C 1011.9 hPa NE 6.4 km/h 9.3 km/h 90% 0.0 mm CLR
05:59 24.8 °C 23.1 °C 1011.9 hPa ENE 6.4 km/h 9.3 km/h 90% 0.0 mm CLR
06:04 24.8 °C 23.1 °C 1012.1 hPa NE 6.4 km/h 9.3 km/h 90% 0.0 mm CLR
06:09 24.8 °C 23.1 °C 1012.1 hPa NE 5.8 km/h 12.2 km/h 90% 0.0 mm CLR
06:14 24.8 °C 23.1 °C 1012.1 hPa NE 5.8 km/h 9.3 km/h 90% 0.0 mm CLR
06:19 24.8 °C 23.1 °C 1012.4 hPa NNE 6.9 km/h 12.2 km/h 90% 0.0 mm CLR
06:24 24.8 °C 23.1 °C 1012.4 hPa NNW 6.9 km/h 11.1 km/h 90% 0.0 mm CLR
06:29 24.8 °C 23.1 °C 1012.4 hPa NNE 8.7 km/h 14.0 km/h 90% 0.0 mm CLR
06:34 24.8 °C 23.1 °C 1012.4 hPa NNW 8.7 km/h 13.0 km/h 90% 0.0 mm CLR
06:39 24.8 °C 23.1 °C 1012.4 hPa ENE 8.4 km/h 9.3 km/h 90% 0.0 mm CLR
06:44 24.7 °C 22.9 °C 1012.4 hPa NE 8.4 km/h 9.3 km/h 90% 0.0 mm CLR
06:49 24.7 °C 22.9 °C 1012.6 hPa NE 6.9 km/h 11.1 km/h 90% 0.0 mm CLR
06:54 24.7 °C 22.9 °C 1012.6 hPa NNE 6.9 km/h 14.8 km/h 90% 0.0 mm CLR
06:59 24.6 °C 23.1 °C 1012.6 hPa NNE 7.6 km/h 13.0 km/h 91% 0.0 mm CLR
07:04 24.6 °C 23.1 °C 1012.7 hPa NNE 7.6 km/h 11.1 km/h 91% 0.0 mm CLR
07:09 24.6 °C 23.1 °C 1012.7 hPa NNE 7.6 km/h 13.0 km/h 91% 0.0 mm CLR
07:14 24.5 °C 22.9 °C 1012.7 hPa NE 7.6 km/h 13.0 km/h 91% 0.0 mm CLR
07:19 24.4 °C 22.8 °C 1012.8 hPa NE 9.5 km/h 11.1 km/h 91% 0.0 mm CLR
07:24 24.4 °C 22.8 °C 1012.8 hPa NE 9.5 km/h 9.3 km/h 91% 0.0 mm CLR
07:29 24.4 °C 22.8 °C 1012.8 hPa ENE 6.4 km/h 9.3 km/h 91% 0.0 mm CLR
07:34 24.4 °C 22.8 °C 1012.9 hPa NE 6.4 km/h 11.1 km/h 91% 0.0 mm CLR
07:39 24.5 °C 22.9 °C 1012.9 hPa NNE 7.6 km/h 9.3 km/h 91% 0.0 mm CLR
07:44 24.6 °C 23.1 °C 1012.9 hPa NNE 7.6 km/h 8.4 km/h 91% 0.0 mm CLR
07:49 24.6 °C 23.1 °C 1012.9 hPa NE 6.4 km/h 9.3 km/h 91% 0.0 mm CLR
07:54 24.7 °C 22.9 °C 1012.9 hPa NE 6.4 km/h 7.4 km/h 90% 0.0 mm CLR
07:59 24.8 °C 23.1 °C 1012.9 hPa NNE 5.8 km/h 7.6 km/h 90% 0.0 mm CLR
08:04 24.9 °C 23.2 °C 1013.1 hPa North 5.8 km/h 3.7 km/h 90% 0.0 mm CLR
08:09 25.0 °C 23.1 °C 1013.1 hPa NE 3.2 km/h 5.6 km/h 89% 0.0 mm CLR
08:14 25.1 °C 23.2 °C 1013.1 hPa NE 3.2 km/h 7.4 km/h 89% 0.0 mm CLR
08:19 25.2 °C 23.1 °C 1013.3 hPa NE 3.9 km/h 7.4 km/h 88% 0.0 mm CLR
08:24 25.2 °C 23.1 °C 1013.3 hPa NNE 3.9 km/h 6.9 km/h 88% 0.0 mm CLR
08:29 25.3 °C 23.0 °C 1013.3 hPa NE 3.9 km/h 5.8 km/h 87% 0.0 mm CLR
08:34 25.3 °C 23.0 °C 1013.4 hPa NE 3.9 km/h 7.4 km/h 87% 0.0 mm CLR
08:39 25.3 °C 23.2 °C 1013.4 hPa NNW 3.9 km/h 3.7 km/h 88% 0.0 mm CLR
08:44 25.5 °C 23.2 °C 1013.4 hPa North 3.9 km/h 7.4 km/h 87% 0.0 mm CLR
08:49 25.7 °C 23.2 °C 1013.5 hPa NNE 3.9 km/h 7.4 km/h 86% 0.0 mm CLR
08:54 25.7 °C 23.0 °C 1013.5 hPa North 3.9 km/h 9.3 km/h 85% 0.0 mm CLR
08:59 25.8 °C 23.3 °C 1013.5 hPa NE 5.8 km/h 5.8 km/h 86% 0.0 mm CLR
09:04 25.9 °C 23.2 °C 1013.7 hPa NE 5.8 km/h 10.0 km/h 85% 0.0 mm CLR
09:09 25.9 °C 23.2 °C 1013.7 hPa NW 6.4 km/h 7.4 km/h 85% 0.0 mm CLR
09:14 25.9 °C 23.0 °C 1013.7 hPa NE 6.4 km/h 7.4 km/h 84% 0.0 mm CLR
09:19 25.9 °C 23.0 °C 1013.7 hPa NE 5.0 km/h 13.0 km/h 84% 0.0 mm CLR
09:24 26.1 °C 22.8 °C 1013.7 hPa NE 5.0 km/h 9.3 km/h 82% 0.0 mm CLR
09:29 26.1 °C 22.6 °C 1013.7 hPa NNE 6.9 km/h 11.9 km/h 81% 0.0 mm CLR
09:34 26.1 °C 22.4 °C 1013.7 hPa NE 6.9 km/h 9.3 km/h 80% 0.0 mm CLR
09:39 26.2 °C 22.5 °C 1013.7 hPa NE 7.6 km/h 11.1 km/h 80% 0.0 mm CLR
09:44 26.1 °C 22.4 °C 1013.7 hPa NNE 7.6 km/h 13.0 km/h 80% 0.0 mm CLR
09:49 26.1 °C 22.4 °C 1013.7 hPa NNE 10.0 km/h 14.8 km/h 80% 0.0 mm CLR
09:54 26.3 °C 22.4 °C 1013.7 hPa ENE 10.0 km/h 14.8 km/h 79% 0.0 mm CLR
09:59 26.6 °C 22.4 °C 1013.7 hPa NE 9.5 km/h 13.0 km/h 78% 0.0 mm CLR
10:04 26.9 °C 22.5 °C 1013.7 hPa NE 9.5 km/h 14.8 km/h 77% 0.0 mm CLR
10:09 27.0 °C 22.4 °C 1013.7 hPa ENE 8.7 km/h 11.1 km/h 76% 0.0 mm CLR
10:14 27.1 °C 22.3 °C 1013.7 hPa NNE 8.7 km/h 7.4 km/h 75% 0.0 mm CLR
10:19 27.4 °C 21.2 °C 1013.7 hPa SE 8.4 km/h 18.5 km/h 69% 0.0 mm CLR
10:24 27.6 °C 21.4 °C 1013.7 hPa ENE 8.4 km/h 13.0 km/h 69% 0.0 mm CLR
10:29 27.7 °C 21.3 °C 1013.7 hPa ENE 9.5 km/h 14.8 km/h 68% 0.0 mm CLR
10:34 27.9 °C 20.4 °C 1013.7 hPa NE 9.5 km/h 19.8 km/h 64% 0.0 mm CLR
10:39 27.8 °C 21.1 °C 1013.7 hPa NE 11.9 km/h 16.7 km/h 67% 0.0 mm CLR
10:44 28.0 °C 20.6 °C 1013.7 hPa ENE 11.9 km/h 22.2 km/h 64% 0.0 mm CLR
10:49 28.3 °C 20.6 °C 1013.8 hPa NNE 11.1 km/h 14.8 km/h 63% 0.0 mm CLR
10:54 28.6 °C 20.9 °C 1013.8 hPa NE 11.1 km/h 18.0 km/h 63% 0.0 mm CLR
10:59 28.2 °C 20.2 °C 1013.8 hPa NE 11.9 km/h 18.5 km/h 62% 0.0 mm CLR
11:04 28.3 °C 20.1 °C 1013.9 hPa East 11.9 km/h 25.9 km/h 61% 0.0 mm CLR
11:09 28.4 °C 19.9 °C 1013.9 hPa NE 12.2 km/h 18.5 km/h 60% 0.0 mm CLR
11:14 28.4 °C 20.2 °C 1013.9 hPa NE 12.2 km/h 19.0 km/h 61% 0.0 mm CLR
11:19 28.4 °C 19.9 °C 1013.8 hPa NE 14.0 km/h 22.2 km/h 60% 0.0 mm CLR
11:24 28.7 °C 19.9 °C 1013.8 hPa NE 14.0 km/h 15.6 km/h 59% 0.0 mm CLR
11:29 28.9 °C 20.6 °C 1013.8 hPa ENE 11.1 km/h 13.7 km/h 61% 0.0 mm CLR
11:34 29.1 °C 20.3 °C 1013.8 hPa NE 11.1 km/h 13.7 km/h 59% 0.0 mm CLR
11:39 29.1 °C 19.7 °C 1013.8 hPa ENE 9.5 km/h 16.7 km/h 57% 0.0 mm CLR
11:44 29.1 °C 19.7 °C 1013.8 hPa East 9.5 km/h 18.5 km/h 57% 0.0 mm CLR
11:49 28.9 °C 19.5 °C 1013.6 hPa ENE 13.7 km/h 26.2 km/h 57% 0.0 mm CLR
11:54 28.9 °C 19.2 °C 1013.6 hPa East 13.7 km/h 16.7 km/h 56% 0.0 mm CLR
11:59 29.3 °C 19.6 °C 1013.6 hPa NE 13.0 km/h 18.5 km/h 56% 0.0 mm CLR
12:04 29.3 °C 19.6 °C 1013.5 hPa NNE 13.0 km/h 23.7 km/h 56% 0.0 mm CLR
12:09 29.3 °C 19.6 °C 1013.5 hPa NE 14.0 km/h 18.5 km/h 56% 0.0 mm CLR
12:14 29.2 °C 19.2 °C 1013.5 hPa NE 14.0 km/h 22.2 km/h 55% 0.0 mm CLR
12:19 29.2 °C 19.2 °C 1013.5 hPa NE 13.7 km/h 14.8 km/h 55% 0.0 mm CLR
12:24 29.4 °C 18.8 °C 1013.5 hPa ENE 13.7 km/h 24.1 km/h 53% 0.0 mm CLR
12:29 29.5 °C 18.9 °C 1013.5 hPa NE 14.8 km/h 18.5 km/h 53% 0.0 mm CLR
12:34 29.6 °C 19.0 °C 1013.5 hPa NE 14.8 km/h 25.9 km/h 53% 0.0 mm CLR
12:39 29.6 °C 18.7 °C 1013.5 hPa ENE 13.0 km/h 22.0 km/h 52% 0.0 mm CLR
12:44 29.7 °C 18.8 °C 1013.5 hPa ENE 13.0 km/h 27.8 km/h 52% 0.0 mm CLR
12:49 29.6 °C 19.0 °C 1013.4 hPa East 16.4 km/h 24.1 km/h 53% 0.0 mm CLR
12:54 29.7 °C 18.5 °C 1013.4 hPa NE 16.4 km/h 25.9 km/h 51% 0.0 mm CLR
12:59 29.6 °C 18.7 °C 1013.4 hPa ENE 17.2 km/h 25.9 km/h 52% 0.0 mm CLR
13:04 29.6 °C 18.7 °C 1013.4 hPa NNE 17.2 km/h 22.0 km/h 52% 0.0 mm CLR
13:09 29.8 °C 18.6 °C 1013.4 hPa NE 15.6 km/h 18.5 km/h 51% 0.0 mm CLR
13:14 30.1 °C 18.8 °C 1013.4 hPa NE 15.6 km/h 22.2 km/h 51% 0.0 mm CLR
13:19 30.0 °C 18.8 °C 1013.3 hPa NNE 14.0 km/h 25.9 km/h 51% 0.0 mm CLR
13:24 29.9 °C 18.7 °C 1013.3 hPa NNE 14.0 km/h 33.3 km/h 51% 0.0 mm CLR
13:29 29.8 °C 18.9 °C 1013.3 hPa NNE 18.0 km/h 29.6 km/h 52% 0.0 mm CLR
13:34 30.1 °C 18.8 °C 1013.3 hPa NE 18.0 km/h 22.2 km/h 51% 0.0 mm CLR
13:39 29.9 °C 18.1 °C 1013.3 hPa NNE 18.0 km/h 20.4 km/h 49% 0.0 mm CLR
13:44 30.1 °C 18.6 °C 1013.3 hPa ESE 18.0 km/h 22.2 km/h 50% 0.0 mm CLR
13:49 30.3 °C 18.4 °C 1013.2 hPa ENE 17.2 km/h 25.9 km/h 49% 0.0 mm CLR
13:54 30.3 °C 18.7 °C 1013.2 hPa NE 17.2 km/h 18.5 km/h 50% 0.0 mm CLR
13:59 30.4 °C 18.5 °C 1013.2 hPa East 16.1 km/h 24.1 km/h 49% 0.0 mm CLR
14:04 30.6 °C 19.0 °C 1013.0 hPa ENE 16.1 km/h 20.4 km/h 50% 0.0 mm CLR
14:09 30.5 °C 18.6 °C 1013.0 hPa ENE 14.0 km/h 24.1 km/h 49% 0.0 mm CLR
14:14 30.6 °C 19.0 °C 1013.0 hPa ENE 14.0 km/h 27.8 km/h 50% 0.0 mm CLR
14:19 30.3 °C 18.7 °C 1012.9 hPa NE 18.0 km/h 25.6 km/h 50% 0.0 mm CLR
14:24 30.7 °C 19.1 °C 1012.9 hPa NE 18.0 km/h 29.1 km/h 50% 0.0 mm CLR
14:29 30.7 °C 18.8 °C 1012.9 hPa ESE 15.6 km/h 31.5 km/h 49% 0.0 mm CLR
14:34 30.7 °C 19.1 °C 1012.8 hPa NE 15.6 km/h 33.3 km/h 50% 0.0 mm CLR
14:39 30.6 °C 19.3 °C 1012.8 hPa NE 19.0 km/h 27.4 km/h 51% 0.0 mm CLR
14:44 30.6 °C 19.3 °C 1012.8 hPa ESE 19.0 km/h 27.8 km/h 51% 0.0 mm CLR
14:49 30.6 °C 19.3 °C 1012.8 hPa East 16.1 km/h 27.8 km/h 51% 0.0 mm CLR
14:54 30.5 °C 19.6 °C 1012.8 hPa ENE 16.1 km/h 25.9 km/h 52% 0.0 mm CLR
14:59 30.3 °C 19.3 °C 1012.8 hPa East 17.2 km/h 27.8 km/h 52% 0.0 mm CLR
15:04 30.3 °C 19.7 °C 1012.9 hPa ENE 17.2 km/h 33.3 km/h 53% 0.0 mm CLR
15:09 30.6 °C 19.3 °C 1012.9 hPa NNE 17.2 km/h 24.1 km/h 51% 0.0 mm CLR
15:14 30.4 °C 19.4 °C 1012.9 hPa NE 17.2 km/h 27.8 km/h 52% 0.0 mm CLR
15:19 30.4 °C 19.7 °C 1012.7 hPa ENE 18.3 km/h 29.6 km/h 53% 0.0 mm CLR
15:24 30.3 °C 19.1 °C 1012.7 hPa ENE 18.3 km/h 27.8 km/h 51% 0.0 mm CLR
15:29 30.3 °C 19.1 °C 1012.7 hPa East 19.0 km/h 25.9 km/h 51% 0.0 mm CLR
15:34 30.3 °C 19.3 °C 1012.7 hPa ENE 19.0 km/h 24.1 km/h 52% 0.0 mm CLR
15:39 30.5 °C 19.2 °C 1012.7 hPa NE 16.1 km/h 31.5 km/h 51% 0.0 mm CLR
15:44 30.6 °C 19.6 °C 1012.7 hPa SE 16.1 km/h 24.1 km/h 52% 0.0 mm CLR
15:49 30.7 °C 19.4 °C 1012.7 hPa NE 14.8 km/h 32.3 km/h 51% 0.0 mm CLR
15:54 30.2 °C 19.3 °C 1012.7 hPa NE 14.8 km/h 33.3 km/h 52% 0.0 mm CLR
15:59 30.4 °C 19.4 °C 1012.7 hPa NE 19.8 km/h 24.5 km/h 52% 0.0 mm CLR
16:04 30.3 °C 19.3 °C 1012.7 hPa NE 19.8 km/h 37.0 km/h 52% 0.0 mm CLR
16:09 30.1 °C 19.2 °C 1012.7 hPa NNE 22.0 km/h 33.3 km/h 52% 0.0 mm CLR
16:14 30.1 °C 18.8 °C 1012.7 hPa ENE 22.0 km/h 27.8 km/h 51% 0.0 mm CLR
16:19 30.3 °C 19.3 °C 1012.6 hPa NE 19.8 km/h 37.0 km/h 52% 0.0 mm CLR
16:24 30.3 °C 19.3 °C 1012.6 hPa ENE 19.8 km/h 25.9 km/h 52% 0.0 mm CLR
16:29 30.6 °C 18.3 °C 1012.6 hPa East 18.0 km/h 25.9 km/h 48% 0.0 mm CLR
16:34 30.6 °C 18.7 °C 1012.4 hPa NE 18.0 km/h 31.5 km/h 49% 0.0 mm CLR
16:39 30.7 °C 18.4 °C 1012.4 hPa ENE 15.6 km/h 22.5 km/h 48% 0.0 mm CLR
16:44 30.7 °C 18.8 °C 1012.4 hPa NNE 15.6 km/h 18.5 km/h 49% 0.0 mm CLR
16:49 30.8 °C 18.8 °C 1012.3 hPa North 14.8 km/h 20.4 km/h 49% 0.0 mm CLR
16:54 30.5 °C 18.9 °C 1012.3 hPa NNW 14.8 km/h 33.3 km/h 50% 0.0 mm CLR
16:59 30.5 °C 18.9 °C 1012.3 hPa ENE 17.2 km/h 25.9 km/h 50% 0.0 mm CLR
17:04 30.4 °C 18.8 °C 1012.3 hPa NE 17.2 km/h 25.9 km/h 50% 0.0 mm CLR
17:09 30.3 °C 19.1 °C 1012.3 hPa NE 18.0 km/h 31.5 km/h 51% 0.0 mm CLR
17:14 30.2 °C 18.9 °C 1012.3 hPa East 18.0 km/h 19.0 km/h 51% 0.0 mm CLR
17:19 30.4 °C 18.5 °C 1012.3 hPa ENE 15.6 km/h 22.2 km/h 49% 0.0 mm CLR
17:24 30.3 °C 18.4 °C 1012.3 hPa East 15.6 km/h 27.8 km/h 49% 0.0 mm CLR
17:29 30.4 °C 18.5 °C 1012.3 hPa NE 16.4 km/h 27.8 km/h 49% 0.0 mm CLR
17:34 30.2 °C 18.3 °C 1012.2 hPa NE 16.4 km/h 25.9 km/h 49% 0.0 mm CLR
17:39 30.2 °C 18.6 °C 1012.2 hPa North 19.0 km/h 20.4 km/h 50% 0.0 mm CLR
17:44 30.1 °C 18.2 °C 1012.2 hPa East 19.0 km/h 22.2 km/h 49% 0.0 mm CLR
17:49 30.2 °C 18.3 °C 1012.2 hPa NE 14.8 km/h 21.7 km/h 49% 0.0 mm CLR
17:54 30.1 °C 17.9 °C 1012.2 hPa NE 14.8 km/h 27.8 km/h 48% 0.0 mm CLR
17:59 30.0 °C 17.8 °C 1012.2 hPa East 18.3 km/h 29.6 km/h 48% 0.0 mm CLR
18:04 30.2 °C 18.0 °C 1012.3 hPa ENE 18.3 km/h 18.5 km/h 48% 0.0 mm CLR
18:09 30.2 °C 18.0 °C 1012.3 hPa East 14.8 km/h 24.1 km/h 48% 0.0 mm CLR
18:14 30.0 °C 17.8 °C 1012.3 hPa NNE 14.8 km/h 16.7 km/h 48% 0.0 mm CLR
18:19 30.0 °C 17.8 °C 1012.2 hPa NE 15.6 km/h 29.6 km/h 48% 0.0 mm CLR
18:24 29.9 °C 18.1 °C 1012.2 hPa NE 15.6 km/h 23.3 km/h 49% 0.0 mm CLR
18:29 29.9 °C 18.1 °C 1012.2 hPa ENE 17.2 km/h 23.3 km/h 49% 0.0 mm CLR
18:34 29.8 °C 17.9 °C 1012.1 hPa East 17.2 km/h 18.5 km/h 49% 0.0 mm CLR
18:39 29.8 °C 17.9 °C 1012.1 hPa NE 16.1 km/h 22.5 km/h 49% 0.0 mm CLR
18:44 29.5 °C 18.0 °C 1012.1 hPa North 16.1 km/h 27.8 km/h 50% 0.0 mm CLR
18:49 29.7 °C 18.2 °C 1012.1 hPa NE 16.1 km/h 24.5 km/h 50% 0.0 mm CLR
18:54 29.5 °C 18.0 °C 1012.1 hPa NE 16.1 km/h 29.6 km/h 50% 0.0 mm CLR
18:59 29.4 °C 18.2 °C 1012.1 hPa NNE 18.0 km/h 22.5 km/h 51% 0.0 mm CLR
19:04 29.3 °C 17.8 °C 1012.1 hPa NE 18.0 km/h 31.5 km/h 50% 0.0 mm CLR
19:09 29.3 °C 18.1 °C 1012.1 hPa NE 16.4 km/h 24.1 km/h 51% 0.0 mm CLR
19:14 29.3 °C 18.1 °C 1012.1 hPa ENE 16.4 km/h 24.1 km/h 51% 0.0 mm CLR
19:19 29.2 °C 18.0 °C 1012.0 hPa NE 16.1 km/h 25.9 km/h 51% 0.0 mm CLR
19:24 29.1 °C 17.9 °C 1012.0 hPa NNW 16.1 km/h 20.4 km/h 51% 0.0 mm CLR
19:29 29.0 °C 18.2 °C 1012.0 hPa ENE 14.0 km/h 22.2 km/h 52% 0.0 mm CLR
19:34 28.8 °C 17.7 °C 1012.0 hPa ENE 14.0 km/h 29.6 km/h 51% 0.0 mm CLR
19:39 28.7 °C 17.9 °C 1012.0 hPa NE 17.2 km/h 25.9 km/h 52% 0.0 mm CLR
19:44 28.7 °C 17.6 °C 1012.0 hPa NNE 17.2 km/h 29.6 km/h 51% 0.0 mm CLR
19:49 28.7 °C 17.9 °C 1012.0 hPa ENE 15.6 km/h 18.5 km/h 52% 0.0 mm CLR
19:54 28.6 °C 18.1 °C 1012.0 hPa NNE 15.6 km/h 18.5 km/h 53% 0.0 mm CLR
19:59 28.6 °C 17.8 °C 1012.0 hPa NE 13.0 km/h 14.8 km/h 52% 0.0 mm CLR
20:04 28.6 °C 17.8 °C 1012.1 hPa ENE 13.0 km/h 22.2 km/h 52% 0.0 mm CLR
20:09 28.5 °C 17.7 °C 1012.1 hPa NNE 11.9 km/h 20.4 km/h 52% 0.0 mm CLR
20:14 28.4 °C 17.6 °C 1012.1 hPa NE 11.9 km/h 20.4 km/h 52% 0.0 mm CLR
20:19 28.3 °C 17.8 °C 1012.2 hPa NNE 11.1 km/h 10.0 km/h 53% 0.0 mm CLR
20:24 28.2 °C 17.4 °C 1012.2 hPa NNE 11.1 km/h 19.0 km/h 52% 0.0 mm CLR
20:29 28.1 °C 17.6 °C 1012.2 hPa East 13.0 km/h 20.4 km/h 53% 0.0 mm CLR
20:34 27.9 °C 17.7 °C 1012.4 hPa NE 13.0 km/h 25.9 km/h 54% 0.0 mm CLR
20:39 27.8 °C 17.9 °C 1012.4 hPa ENE 14.0 km/h 22.2 km/h 55% 0.0 mm CLR
20:44 27.8 °C 17.9 °C 1012.4 hPa NNE 14.0 km/h 14.8 km/h 55% 0.0 mm CLR
20:49 27.7 °C 18.1 °C 1012.3 hPa NE 13.0 km/h 22.5 km/h 56% 0.0 mm CLR
20:54 27.4 °C 17.8 °C 1012.3 hPa NE 13.0 km/h 16.7 km/h 56% 0.0 mm CLR
20:59 27.4 °C 17.8 °C 1012.3 hPa NNE 13.7 km/h 18.5 km/h 56% 0.0 mm CLR
21:04 27.3 °C 17.8 °C 1012.4 hPa East 13.7 km/h 16.7 km/h 56% 0.0 mm CLR
21:09 27.3 °C 17.8 °C 1012.4 hPa East 11.1 km/h 18.5 km/h 56% 0.0 mm CLR
21:14 27.2 °C 17.9 °C 1012.4 hPa ENE 11.1 km/h 20.1 km/h 57% 0.0 mm CLR
21:19 27.1 °C 18.4 °C 1012.5 hPa ENE 10.0 km/h 16.4 km/h 59% 0.0 mm CLR
21:24 26.9 °C 18.2 °C 1012.5 hPa NNE 10.0 km/h 22.5 km/h 59% 0.0 mm CLR
21:29 26.8 °C 18.1 °C 1012.5 hPa NE 13.0 km/h 14.8 km/h 59% 0.0 mm CLR
21:34 26.7 °C 18.0 °C 1012.6 hPa NE 13.0 km/h 18.5 km/h 59% 0.0 mm CLR
21:39 26.6 °C 18.2 °C 1012.6 hPa NNE 14.0 km/h 18.0 km/h 60% 0.0 mm CLR
21:44 26.6 °C 18.2 °C 1012.6 hPa East 14.0 km/h 14.8 km/h 60% 0.0 mm CLR
21:49 26.4 °C 18.3 °C 1012.6 hPa East 10.3 km/h 14.8 km/h 61% 0.0 mm CLR
21:54 26.4 °C 18.3 °C 1012.6 hPa ENE 10.3 km/h 14.8 km/h 61% 0.0 mm CLR
21:59 26.4 °C 18.6 °C 1012.6 hPa ENE 7.6 km/h 11.1 km/h 62% 0.0 mm CLR
22:04 26.3 °C 18.7 °C 1012.7 hPa NNE 7.6 km/h 14.8 km/h 63% 0.0 mm CLR
22:09 26.2 °C 18.6 °C 1012.7 hPa NE 10.0 km/h 14.8 km/h 63% 0.0 mm CLR
22:14 26.2 °C 18.8 °C 1012.7 hPa ENE 10.0 km/h 16.7 km/h 64% 0.0 mm CLR
22:19 26.1 °C 19.0 °C 1012.8 hPa NE 11.9 km/h 15.6 km/h 65% 0.0 mm CLR
22:24 26.1 °C 19.0 °C 1012.8 hPa NE 11.9 km/h 18.5 km/h 65% 0.0 mm CLR
22:29 26.0 °C 18.9 °C 1012.8 hPa NE 11.1 km/h 14.8 km/h 65% 0.0 mm CLR
22:34 25.9 °C 19.1 °C 1013.1 hPa ENE 11.1 km/h 13.0 km/h 66% 0.0 mm CLR
22:39 25.9 °C 19.1 °C 1013.1 hPa NE 9.5 km/h 13.0 km/h 66% 0.0 mm CLR
22:44 25.8 °C 18.9 °C 1013.1 hPa NE 9.5 km/h 11.1 km/h 66% 0.0 mm CLR
22:49 25.8 °C 18.9 °C 1013.3 hPa NNE 10.0 km/h 11.1 km/h 66% 0.0 mm CLR
22:54 25.8 °C 19.2 °C 1013.3 hPa NE 10.0 km/h 14.8 km/h 67% 0.0 mm CLR
22:59 25.7 °C 19.1 °C 1013.3 hPa NE 8.7 km/h 13.0 km/h 67% 0.0 mm CLR
23:04 25.7 °C 19.1 °C 1013.5 hPa NNE 8.7 km/h 11.1 km/h 67% 0.0 mm CLR
23:09 25.6 °C 19.0 °C 1013.5 hPa NE 9.5 km/h 11.1 km/h 67% 0.0 mm CLR
23:14 25.6 °C 19.0 °C 1013.5 hPa NNE 9.5 km/h 9.3 km/h 67% 0.0 mm CLR
23:19 25.6 °C 19.3 °C 1013.6 hPa NE 6.9 km/h 9.5 km/h 68% 0.0 mm CLR
23:24 25.5 °C 19.2 °C 1013.6 hPa NNE 6.9 km/h 7.4 km/h 68% 0.0 mm CLR
23:29 25.5 °C 19.2 °C 1013.6 hPa NE 6.4 km/h 7.4 km/h 68% 0.0 mm CLR
23:34 25.4 °C 19.3 °C 1013.7 hPa NNE 6.4 km/h 7.4 km/h 69% 0.0 mm CLR
23:39 25.4 °C 19.3 °C 1013.7 hPa NE 4.7 km/h 7.4 km/h 69% 0.0 mm CLR
23:44 25.3 °C 19.2 °C 1013.7 hPa NE 4.7 km/h 7.4 km/h 69% 0.0 mm CLR
23:49 25.3 °C 19.4 °C 1013.7 hPa NE 5.8 km/h 7.6 km/h 70% 0.0 mm CLR
23:54 25.3 °C 19.4 °C 1013.7 hPa ENE 5.8 km/h 10.0 km/h 70% 0.0 mm CLR
23:59 25.3 °C 19.4 °C 1013.7 hPa NE 6.9 km/h 7.4 km/h 70% 0.0 mm CLR
Murcia-Puente Tocinos, España
Compliments of Weather Underground - 2.75 mb

La estación de MeteoMurcia.com, publica sus datos en los siguientes proyectos:

Weather Underground PWS IMURCIAP2 Meteoclimatic www.awekas.at

W3Counter
Web Analytics